SCP
0 0 0 0 0 0 0 0 0 0 0 0 0 0 0 0 0 0 0 0 0 0 0 0 0 0 0 0 0 0 0 0 0 0 0 0 0 0
0 0 0 0 0 0 0 0 0 0 0 0 0 0 0 0 0 0 0 0 0 0 0 0 0 0 0 0 0 0 0 0 0 0 0 0 0 0
0 0 0 0 0 0 0 0 0 0 0 0 0 0 0 0 0 0 0 0 0 0 0 0 0 0 0 0 0 0 0 0 0 0 0 0 0 0
0 0 0 0 0 0 0 0 0 0 0 0 0 0 0 0 0 0 0 0 0 0 0 0 0 0 0 0 0 0 0 0 0 0 0 0 0 0
0 0 0 0 0 0 0 0 0 0 0 0 0 0 0 0 0 0 0 0 0 0 0 0 0 0 0 0 0 0 0 0 0 0 0 0 0 0
0 0 0 0 0 0 0 0 0 0 0 0 0 0 0 0 0 0 0 0 0 0 0 0 0 0 0 0 0 0 0 0 0 0 0 0 0 0
0 0 0 0 0 0 0 0 0 0 0 0 0 0 0 0 0 0 0 0 0 0 0 0 0 0 0 0 0 0 0 0 0 0 0 0 0 0
0 0 0 0 0 0 0 0 0 0 0 0 0 0 0 0 0 0 0 0 0 0 0 0 0 0 0 0 0 0 0 0 0 0 0 0 0 0
0 0 0 0 0 0 0 0 0 0 0 0 0 0 0 0 0 0 0 0 0 0 0 0 0 0 0 0 0 0 0 0 0 0 0 0 0 0
0 0 0 0 0 0 0 0 0 0 0 0 0 0 0 0 0 0 0 0 0 0 0 0 0 0 0 0 0 0 0 0 0 0 0 0 0 0
0 0 0 0 0 0 0 0 0 0 0 0 0 0 0 0 0 0 0 0 0 0 0 0 0 0 0 0 0 0 0 0 0 0 0 0 0 0
0 0 0 0 0 0 0 0 0 0 0 0 0 0 0 0 0 0 0 0 0 0 0 0 0 0 0 0 0 0 0 0 0 0 0 0 0 0
0 0 0 0 0 0 0 0 0 0 0 0 0 0 0 0 0 0 0 0 0 0 0 0 0 0 0 0 0 0 0 0 0 0 0 0 0 0
0 0 0 0 0 0 0 0 0 0 0 0 0 0 0 0 0 0 0 0 0 0 0 0 0 0 0 0 0 0 0 0 0 0 0 0 0 0
0 0 0 0 0 0 0 0 0 0 0 0 0 0 0 0 0 0 0 0 0 0 0 0 0 0 0 0 0 0 0 0 0 0 0 0 0 0
0 0 0 0 0 0 0 0 0 0 0 0 0 0 0 0 0 0 0 0 0 0 0 0 0 0 0 0 0 0 0 0 0 0 0 0 0 0
0 0 0 0 0 0 0 0 0 0 0 0 0 0 0 0 0 0 0 0 0 0 0 0 0 0 0 0 0 0 0 0 0 0 0 0 0 0
0 0 0 0 0 0 0 0 0 0 0 0 0 0 0 0 0 0 0 0 0 0 0 0 0 0 0 0 0 0 0 0 0 0 0 0 0 0
0 0 0 0 0 0 0 0 0 0 0 0 0 0 0 0 0 0 0 0 0 0 0 0 0 0 0 0 0 0 0 0 0 0 0 0 0 0
0 0 0 0 0 0 0 0 0 0 0 0 0 0 0 0 0 0 0 0 0 0 0 0 0 0 0 0 0 0 0 0 0 0 0 0 0 0
0 0 0 0 0 0 0 0 0 0 0 0 0 0 0 0 0 0 0 0 0 0 0 0 0 0 0 0 0 0 0 0 0 0 0 0 0 0
0 0 0 0 0 0 0 0 0 0 0 0 0 0 0 0 0 0 0 0 0 0 0 0 0 0 0 0 0 0 0 0 0 0 0 0 0 0
0 0 0 0 0 0 0 0 0 0 0 0 0 0 0 0 0 0 0 0 0 0 0 0 0 0 0 0 0 0 0 0 0 0 0 0 0 0
Wind_Speed_500mb
64 64 61 55 50 47 42 40 39 33 32 29 27 26 23 19 16 15 17 19 19 21 22 22 22 22 21 22 22 24 24 26 25 25 25 25 21 19
69 65 62 61 56 52 47 45 45 40 30 28 27 25 23 22 20 21 21 24 22 22 24 25 26 27 26 26 27 27 27 28 29 28 27 28 28 24
76 75 61 61 59 55 52 51 49 46 38 33 31 28 27 26 25 25 26 27 29 28 27 29 30 30 30 31 32 30 29 31 32 31 30 30 31 30
84 78 70 60 60 59 55 53 50 47 42 38 33 29 29 29 30 28 29 30 32 35 32 31 35 34 35 34 36 37 35 34 35 35 33 32 34 35
86 72 67 62 62 61 59 56 52 50 45 40 34 31 32 33 33 32 32 34 36 38 39 36 38 38 38 35 37 38 39 38 37 37 37 36 36 38
78 68 61 61 60 59 58 53 53 51 46 42 37 34 34 34 35 34 36 38 38 39 41 42 43 36 35 33 41 44 45 44 42 41 41 41 40 39
71 69 60 62 59 55 53 52 57 52 47 44 38 35 35 34 36 39 41 40 43 42 39 40 40 40 41 43 44 45 45 44 45 46 45 45 43 41
63 71 68 61 64 61 57 54 54 50 45 43 39 34 36 37 39 40 44 43 46 41 37 40 46 48 47 47 43 41 42 43 44 44 45 46 43 42
71 66 64 67 66 63 60 58 56 52 48 40 38 34 39 38 42 42 44 43 44 45 44 48 45 44 47 49 38 32 35 36 39 40 39 42 42 42
68 64 57 58 65 64 60 56 54 51 45 40 33 37 40 44 45 43 43 43 44 46 44 50 48 43 36 45 47 33 29 28 31 35 37 39 40 42
59 61 59 59 59 58 55 49 51 48 41 39 31 40 49 49 50 43 41 42 42 43 42 44 40 40 42 36 26 7 5 15 32 30 27 28 37 45
56 57 59 56 58 55 51 47 47 41 39 37 33 47 47 49 46 41 40 38 39 37 29 30 40 42 25 22 13 37 32 33 34 34 39 45 48 51
56 60 57 54 55 52 47 45 47 37 43 37 39 47 46 44 42 38 39 37 37 34 37 35 38 37 35 42 42 40 35 33 37 35 38 43 47 51
51 50 47 53 55 52 47 46 37 44 37 41 41 47 40 38 37 36 35 34 31 28 30 29 38 36 40 50 54 47 49 45 44 38 25 28 39 47
45 48 54 57 56 53 42 46 43 40 45 39 45 37 36 34 30 28 22 23 24 23 25 28 31 37 41 48 55 58 60 60 40 36 58 47 49 50
53 55 57 56 51 44 45 41 44 39 36 37 31 34 29 21 16 17 17 19 21 20 24 26 33 41 46 46 53 56 53 55 57 54 60 58 53 52
60 61 63 59 49 45 40 37 32 32 27 26 27 23 18 13 14 14 15 18 20 22 24 29 37 39 42 48 54 53 51 53 54 52 58 67 63 63
59 60 58 52 45 42 35 31 29 26 26 25 19 15 14 11 12 14 17 20 22 26 31 33 36 42 46 45 46 44 51 49 57 61 64 72 76 66
56 54 45 42 39 34 31 29 27 26 22 21 20 17 14 13 13 16 20 23 24 28 32 36 37 42 47 51 54 46 54 63 67 69 68 68 73 70
40 41 42 36 34 30 27 25 24 24 24 20 18 15 12 12 11 13 17 22 26 28 31 34 37 40 42 46 54 58 46 54 56 62 65 65 64 59
39 37 33 30 25 21 23 25 25 25 24 21 17 14 11 7 7 11 17 23 27 30 31 32 35 40 43 48 54 59 49 40 41 48 55 63 68 70
33 28 25 21 22 25 26 25 24 22 21 19 16 11 7 5 9 15 19 23 26 30 32 33 34 36 38 43 48 51 54 44 33 36 38 44 54 58
28 24 25 25 25 24 23 23 24 24 21 16 10 5 3 9 15 20 23 26 29 31 36 35 33 33 34 38 43 49 49 47 50 52 48 42 46 49
Wind_Direction_500mb
239 237 240 241 239 241 233 229 233 228 229 226 224 225 231 242 254 276 293 299 313 323 325 326 324 319 311 304 299 296 296 295 296 296 291 287 283 283
237 231 232 237 237 238 231 230 232 234 231 229 224 228 234 241 253 271 282 291 298 308 312 316 317 313 310 307 301 296 293 291 292 292 290 290 286 277
238 226 228 230 234 234 228 228 229 231 230 232 228 233 240 246 258 269 280 288 296 298 303 308 308 309 308 305 300 295 290 289 289 289 285 285 288 283
239 233 223 224 229 229 225 226 227 231 230 233 234 237 244 251 259 269 278 286 290 294 297 301 302 303 304 302 300 296 292 290 287 285 281 281 284 283
240 234 225 223 227 225 221 221 224 229 231 232 236 238 247 255 263 271 280 285 288 292 298 297 294 296 297 299 296 294 291 289 286 282 279 280 281 280
238 232 217 226 227 222 220 221 226 228 231 234 239 246 252 259 266 274 278 282 287 291 295 297 297 292 292 294 293 293 292 290 286 282 280 280 280 277
237 226 215 226 224 221 219 221 226 227 231 237 243 251 257 266 271 273 279 284 288 291 293 295 295 296 297 292 291 291 288 285 282 280 280 278 277 274
233 223 217 212 216 213 214 218 228 233 234 241 250 259 268 269 272 277 281 287 290 295 296 295 298 301 302 300 294 288 284 282 278 276 277 276 275 274
225 220 217 213 215 214 213 219 226 230 234 242 254 267 270 273 274 278 282 286 288 290 293 295 296 300 300 301 299 296 289 281 277 277 276 276 276 276
226 217 215 215 217 216 216 221 229 234 237 245 252 269 273 279 278 279 282 285 287 289 293 296 302 305 301 301 301 300 285 283 284 280 275 274 276 279
214 213 212 213 217 218 220 222 230 235 238 244 252 273 276 282 280 280 282 283 285 288 291 296 301 304 311 307 311 340 278 310 303 290 279 274 281 282
210 208 210 211 215 217 222 221 233 236 241 247 263 267 272 279 279 281 280 281 283 293 295 294 299 315 323 311 280 302 310 308 300 291 283 280 279 276
215 212 207 210 215 217 218 228 231 231 242 246 264 263 274 274 279 278 278 280 283 286 290 294 302 309 304 301 304 312 314 316 310 302 291 282 278 276
209 210 210 212 218 221 218 222 233 237 235 256 258 263 266 267 270 274 279 285 291 296 293 298 298 305 302 303 308 315 318 321 318 311 302 299 288 279
204 201 208 215 217 217 216 235 229 231 245 249 252 259 261 266 267 269 277 285 291 293 296 298 298 298 298 300 306 312 320 325 325 315 310 301 296 290
207 206 208 212 212 217 217 220 238 242 242 245 251 251 256 261 261 270 282 290 295 297 296 298 297 296 298 302 303 309 317 312 314 314 308 307 307 304
214 208 206 204 212 212 218 224 227 230 238 244 242 244 244 249 254 270 283 290 296 300 295 294 297 296 297 300 303 311 313 311 313 312 307 303 302 301
209 209 210 211 208 213 212 214 216 226 236 230 225 227 225 238 266 281 285 289 295 297 299 303 306 305 304 303 310 312 316 314 315 311 310 308 307 308
208 209 206 208 208 206 207 211 221 225 216 212 212 211 222 238 255 269 279 290 298 304 308 310 312 309 309 312 317 322 323 322 318 314 313 312 311 314
197 197 201 200 202 196 199 213 208 203 203 210 211 206 213 228 248 273 291 297 303 307 309 310 310 310 314 314 313 320 325 317 315 314 316 314 312 309
191 189 184 180 181 186 191 193 196 199 199 204 200 187 193 224 265 287 297 304 308 310 312 312 312 315 317 315 313 319 326 326 322 317 316 314 318 317
162 160 153 159 178 185 188 187 187 187 189 182 173 173 189 247 296 305 311 312 314 314 316 320 321 321 320 316 318 320 323 330 324 313 313 317 316 305
138 141 154 164 172 178 177 172 165 163 163 159 162 187 284 314 316 317 319 319 320 321 320 322 325 326 326 322 320 321 327 332 332 328 327 329 322 314
Wind_Speed_850mb
64 64 61 55 50 47 42 40 39 33 32 29 27 26 23 19 16 15 17 19 19 21 22 22 22 22 21 22 22 24 24 26 25 25 25 25 21 19
69 65 62 61 56 52 47 45 45 40 30 28 27 25 23 22 20 21 21 24 22 22 24 25 26 27 26 26 27 27 27 28 29 28 27 28 28 24
76 75 61 61 59 55 52 51 49 46 38 33 31 28 27 26 25 25 26 27 29 28 27 29 30 30 30 31 32 30 29 31 32 31 30 30 31 30
84 78 70 60 60 59 55 53 50 47 42 38 33 29 29 29 30 28 29 30 32 35 32 31 35 34 35 34 36 37 35 34 35 35 33 32 34 35
86 72 67 62 62 61 59 56 52 50 45 40 34 31 32 33 33 32 32 34 36 38 39 36 38 38 38 35 37 38 39 38 37 37 37 36 36 38
78 68 61 61 60 59 58 53 53 51 46 42 37 34 34 34 35 34 36 38 38 39 41 42 43 36 35 33 41 44 45 44 42 41 41 41 40 39
71 69 60 62 59 55 53 52 57 52 47 44 38 35 35 34 36 39 41 40 43 42 39 40 40 40 41 43 44 45 45 44 45 46 45 45 43 41
63 71 68 61 64 61 57 54 54 50 45 43 39 34 36 37 39 40 44 43 46 41 37 40 46 48 47 47 43 41 42 43 44 44 45 46 43 42
71 66 64 67 66 63 60 58 56 52 48 40 38 34 39 38 42 42 44 43 44 45 44 48 45 44 47 49 38 32 35 36 39 40 39 42 42 42
68 64 57 58 65 64 60 56 54 51 45 40 33 37 40 44 45 43 43 43 44 46 44 50 48 43 36 45 47 33 29 28 31 35 37 39 40 42
59 61 59 59 59 58 55 49 51 48 41 39 31 40 49 49 50 43 41 42 42 43 42 44 40 40 42 36 26 7 5 15 32 30 27 28 37 45
56 57 59 56 58 55 51 47 47 41 39 37 33 47 47 49 46 41 40 38 39 37 29 30 40 42 25 22 13 37 32 33 34 34 39 45 48 51
56 60 57 54 55 52 47 45 47 37 43 37 39 47 46 44 42 38 39 37 37 34 37 35 38 37 35 42 42 40 35 33 37 35 38 43 47 51
51 50 47 53 55 52 47 46 37 44 37 41 41 47 40 38 37 36 35 34 31 28 30 29 38 36 40 50 54 47 49 45 44 38 25 28 39 47
45 48 54 57 56 53 42 46 43 40 45 39 45 37 36 34 30 28 22 23 24 23 25 28 31 37 41 48 55 58 60 60 40 36 58 47 49 50
53 55 57 56 51 44 45 41 44 39 36 37 31 34 29 21 16 17 17 19 21 20 24 26 33 41 46 46 53 56 53 55 57 54 60 58 53 52
60 61 63 59 49 45 40 37 32 32 27 26 27 23 18 13 14 14 15 18 20 22 24 29 37 39 42 48 54 53 51 53 54 52 58 67 63 63
59 60 58 52 45 42 35 31 29 26 26 25 19 15 14 11 12 14 17 20 22 26 31 33 36 42 46 45 46 44 51 49 57 61 64 72 76 66
56 54 45 42 39 34 31 29 27 26 22 21 20 17 14 13 13 16 20 23 24 28 32 36 37 42 47 51 54 46 54 63 67 69 68 68 73 70
40 41 42 36 34 30 27 25 24 24 24 20 18 15 12 12 11 13 17 22 26 28 31 34 37 40 42 46 54 58 46 54 56 62 65 65 64 59
39 37 33 30 25 21 23 25 25 25 24 21 17 14 11 7 7 11 17 23 27 30 31 32 35 40 43 48 54 59 49 40 41 48 55 63 68 70
33 28 25 21 22 25 26 25 24 22 21 19 16 11 7 5 9 15 19 23 26 30 32 33 34 36 38 43 48 51 54 44 33 36 38 44 54 58
28 24 25 25 25 24 23 23 24 24 21 16 10 5 3 9 15 20 23 26 29 31 36 35 33 33 34 38 43 49 49 47 50 52 48 42 46 49
Wind_Direction_850mb
239 237 240 241 239 241 233 229 233 228 229 226 224 225 231 242 254 276 293 299 313 323 325 326 324 319 311 304 299 296 296 295 296 296 291 287 283 283
237 231 232 237 237 238 231 230 232 234 231 229 224 228 234 241 253 271 282 291 298 308 312 316 317 313 310 307 301 296 293 291 292 292 290 290 286 277
238 226 228 230 234 234 228 228 229 231 230 232 228 233 240 246 258 269 280 288 296 298 303 308 308 309 308 305 300 295 290 289 289 289 285 285 288 283
239 233 223 224 229 229 225 226 227 231 230 233 234 237 244 251 259 269 278 286 290 294 297 301 302 303 304 302 300 296 292 290 287 285 281 281 284 283
240 234 225 223 227 225 221 221 224 229 231 232 236 238 247 255 263 271 280 285 288 292 298 297 294 296 297 299 296 294 291 289 286 282 279 280 281 280
238 232 217 226 227 222 220 221 226 228 231 234 239 246 252 259 266 274 278 282 287 291 295 297 297 292 292 294 293 293 292 290 286 282 280 280 280 277
237 226 215 226 224 221 219 221 226 227 231 237 243 251 257 266 271 273 279 284 288 291 293 295 295 296 297 292 291 291 288 285 282 280 280 278 277 274
233 223 217 212 216 213 214 218 228 233 234 241 250 259 268 269 272 277 281 287 290 295 296 295 298 301 302 300 294 288 284 282 278 276 277 276 275 274
225 220 217 213 215 214 213 219 226 230 234 242 254 267 270 273 274 278 282 286 288 290 293 295 296 300 300 301 299 296 289 281 277 277 276 276 276 276
226 217 215 215 217 216 216 221 229 234 237 245 252 269 273 279 278 279 282 285 287 289 293 296 302 305 301 301 301 300 285 283 284 280 275 274 276 279
214 213 212 213 217 218 220 222 230 235 238 244 252 273 276 282 280 280 282 283 285 288 291 296 301 304 311 307 311 340 278 310 303 290 279 274 281 282
210 208 210 211 215 217 222 221 233 236 241 247 263 267 272 279 279 281 280 281 283 293 295 294 299 315 323 311 280 302 310 308 300 291 283 280 279 276
215 212 207 210 215 217 218 228 231 231 242 246 264 263 274 274 279 278 278 280 283 286 290 294 302 309 304 301 304 312 314 316 310 302 291 282 278 276
209 210 210 212 218 221 218 222 233 237 235 256 258 263 266 267 270 274 279 285 291 296 293 298 298 305 302 303 308 315 318 321 318 311 302 299 288 279
204 201 208 215 217 217 216 235 229 231 245 249 252 259 261 266 267 269 277 285 291 293 296 298 298 298 298 300 306 312 320 325 325 315 310 301 296 290
207 206 208 212 212 217 217 220 238 242 242 245 251 251 256 261 261 270 282 290 295 297 296 298 297 296 298 302 303 309 317 312 314 314 308 307 307 304
214 208 206 204 212 212 218 224 227 230 238 244 242 244 244 249 254 270 283 290 296 300 295 294 297 296 297 300 303 311 313 311 313 312 307 303 302 301
209 209 210 211 208 213 212 214 216 226 236 230 225 227 225 238 266 281 285 289 295 297 299 303 306 305 304 303 310 312 316 314 315 311 310 308 307 308
208 209 206 208 208 206 207 211 221 225 216 212 212 211 222 238 255 269 279 290 298 304 308 310 312 309 309 312 317 322 323 322 318 314 313 312 311 314
197 197 201 200 202 196 199 213 208 203 203 210 211 206 213 228 248 273 291 297 303 307 309 310 310 310 314 314 313 320 325 317 315 314 316 314 312 309
191 189 184 180 181 186 191 193 196 199 199 204 200 187 193 224 265 287 297 304 308 310 312 312 312 315 317 315 313 319 326 326 322 317 316 314 318 317
162 160 153 159 178 185 188 187 187 187 189 182 173 173 189 247 296 305 311 312 314 314 316 320 321 321 320 316 318 320 323 330 324 313 313 317 316 305
138 141 154 164 172 178 177 172 165 163 163 159 162 187 284 314 316 317 319 319 320 321 320 322 325 326 326 322 320 321 327 332 332 328 327 329 322 314